This is the latest recevied weather packets stored in our database for station/object N8HON. If no packets are shown the sender has not sent any weather packets the latest 10 day(s).
| Time | Temp. | Humidity | Pressure | Rain* | Wind** | Luminosity | Snow |
|---|---|---|---|---|---|---|---|
| 1777566902 | 13.89° C | 51% | 1009.7 hPa | 0 mm | - | 561 W/m² | - |
| 1777566599 | 13.89° C | 48% | 1009.8 hPa | 0 mm | - | 783 W/m² | - |
| 1777566297 | 13.89° C | 48% | 1009.8 hPa | 0 mm | - | 718 W/m² | - |
| 1777565994 | 13.89° C | 50% | 1009.7 hPa | 0 mm | - | 507 W/m² | - |
| 1777565695 | 13.33° C | 52% | 1009.7 hPa | 0 mm | - | 714 W/m² | - |
| 1777565392 | 13.33° C | 57% | 1009.8 hPa | 0 mm | - | 603 W/m² | - |
| 1777565088 | 12.22° C | 54% | 1009.8 hPa | 0 mm | - | 215 W/m² | - |
| 1777564784 | 12.22° C | 56% | 1010 hPa | 0 mm | - | 190 W/m² | - |
| 1777564479 | 12.78° C | 55% | 1010 hPa | 0 mm | - | 198 W/m² | - |
| 1777564174 | 13.33° C | 54% | 1009.9 hPa | 0 mm | - | 210 W/m² | - |
| 1777563871 | 13.33° C | 58% | 1009.5 hPa | 0 mm | - | 698 W/m² | - |
| 1777563568 | 13.89° C | 55% | 1010.1 hPa | 0 mm | - | 234 W/m² | - |
| 1777563267 | 13.33° C | 57% | 1009.8 hPa | 0 mm | - | 668 W/m² | - |
| 1777562964 | 13.33° C | 56% | 1009.9 hPa | 0 mm | - | 329 W/m² | - |
| 1777562660 | 12.78° C | 60% | 1009.8 hPa | 0 mm | - | 345 W/m² | - |
| 1777562360 | 12.78° C | 58% | 1009.7 hPa | 0 mm | - | 572 W/m² | - |
| 1777562056 | 12.78° C | 60% | 1010.2 hPa | 0 mm | - | 278 W/m² | - |
| 1777561753 | 11.67° C | 63% | 1010.2 hPa | 0 mm | - | 802 W/m² | - |
| 1777561449 | 11.11° C | 66% | 1010 hPa | 0 mm | - | 162 W/m² | - |
| 1777561144 | 11.67° C | 66% | 1010.1 hPa | 0 mm | - | 126 W/m² | - |
| 1777560839 | 11.67° C | 65% | 1010 hPa | 0 mm | - | 130 W/m² | - |
| 1777560537 | 11.67° C | 64% | 1009.8 hPa | 0 mm | - | 149 W/m² | - |
| 1777560235 | 11.67° C | 67% | 1009.6 hPa | 0 mm | - | 137 W/m² | - |
| 1777559931 | 11.67° C | 64% | 1009.6 hPa | 0 mm | - | 162 W/m² | - |
| 1777559626 | 12.22° C | 62% | 1009.6 hPa | 0 mm | - | 144 W/m² | - |
* Rain latest hour (hover to see other rain measurements)
** Current wind speed in m/s (hover to see current wind gust speed)